Location: Middelsbur
(53.6609°N, 7.5020°E)
Time: 13:26:21
(UTC+00:00)

Cosmos 2221 - Pass Details

Date: 06 July 2020
Orbit: 592 x 616 km, 82.5° (Epoch: 07 August)

Event Time Altitude Azimuth Distance (km) Brightness Sun altitude
Rises 21:04:16 0° 350° (N) 2,901 7.4 -7.1°
Reaches altitude 10° 21:06:32 10° 354° (N) 1,989 6.3 -7.3°
Maximum altitude 21:10:54 63° 76° (ENE) 691 2.7 -7.7°
Drops below altitude 10° 21:15:13 10° 158° (SSE) 1,961 4.5 -8.0°
Enters shadow 21:15:14 10° 158° (SSE) 1,971 4.5 -8.0°
